Memphis, TN

1:32 PM CDT on August 25, 2016 (GMT -0500)
Memphis International

Weather History for KMEM - November, 2013

Change the Weather History Date:

Saturday, November 2, 2013

  Actual Average Record
Temperature  
Mean Temperature 52 °F 58 °F  
Max Temperature 62 °F 68 °F 84 °F (1987)
Min Temperature 41 °F 48 °F 24 °F (1954)
Degree Days  
Heating Degree Days 13 8  
Month to date heating degree days 16 15  
Since 1 July heating degree days 129 146  
Cooling Degree Days 0 1  
Month to date cooling degree days 0 2  
Year to date cooling degree days 2237 2245  
Growing Degree Days 4 (Base 50)    
Moisture  
Dew Point 41 °F    
Average Humidity 65    
Maximum Humidity 83    
Minimum Humidity 47    
Precipitation  
Precipitation 0.00 in 0.15 in 2.59 in (1995)
Month to date precipitation T 0.30  
Year to date precipitation 51.94 42.75  
Snow  
Snow 0.00 in 0.00 in 0.20 in (1951)
Month to date snowfall 0.0 0.0  
Since 1 July snowfall 0.0 0.0  
Since 1 September snowfall 0.0 0.0  
Snow Depth 0.00 in    
Sea Level Pressure  
Sea Level Pressure 30.06 in    
Wind  
Wind Speed 8 mph (NW)    
Max Wind Speed 20 mph    
Max Gust Speed 28 mph    
Visibility 10 miles    
Events      
T = Trace of Precipitation, MM = Missing Value Source: NWS Daily Summary

Daily Weather History Graph

Daily Weather History Graph

Search for Another Location

Airport or City:

Trip Planner

Search our weather history database for the weather conditions in past years. The results will help you decide how hot, cold, wet, or windy it might be!

Date:

Astronomy

Nov. 02, 2013 Rise Set
Actual Time 7:22 AM CDT 6:04 PM CDT
Civil Twilight 6:55 AM CDT 6:30 PM CDT
Nautical Twilight 6:25 AM CDT 7:00 PM CDT
Astronomical Twilight 5:56 AM CDT 7:30 PM CDT
Moon 6:21 AM CDT (11/2) 5:35 PM CDT (11/2)
Length of Visible Light 11h 34m
Length of Day
10h 42m
Waning Crescent, 1% of the Moon is Illuminated
Nov 2
Waning Crescent
Nov 3
New
Nov 9
First Quarter
Nov 17
Full
Nov 25
Last Quarter

Hourly Weather History & Observations

Time (CDT) Temp. Dew Point Humidity Pressure Visibility Wind Dir Wind Speed Gust Speed Precip Events Conditions
12:54 AM 55.9 °F 48.0 °F 75% 29.90 in 10.0 mi Variable 4.6 mph - N/A   Scattered Clouds
1:54 AM 55.9 °F 46.0 °F 69% 29.91 in 10.0 mi WNW 3.5 mph - N/A   Scattered Clouds
2:54 AM 54.0 °F 45.0 °F 72% 29.92 in 10.0 mi NW 4.6 mph - N/A   Mostly Cloudy
3:54 AM 52.0 °F 43.0 °F 71% 29.93 in 10.0 mi WNW 4.6 mph - N/A   Partly Cloudy
4:54 AM 50.0 °F 43.0 °F 77% 29.95 in 10.0 mi WNW 4.6 mph - N/A   Clear
5:54 AM 50.0 °F 43.0 °F 77% 29.97 in 10.0 mi West 3.5 mph - N/A   Clear
6:54 AM 48.9 °F 42.1 °F 77% 29.99 in 10.0 mi West 5.8 mph - N/A   Partly Cloudy
7:54 AM 50.0 °F 43.0 °F 77% 30.01 in 10.0 mi WNW 8.1 mph - N/A   Partly Cloudy
8:54 AM 53.1 °F 43.0 °F 69% 30.04 in 10.0 mi NW 13.8 mph 20.7 mph N/A   Clear
9:54 AM 55.9 °F 43.0 °F 62% 30.05 in 10.0 mi NNW 12.7 mph 19.6 mph N/A   Clear
10:54 AM 57.9 °F 43.0 °F 58% 30.07 in 10.0 mi NW 9.2 mph 18.4 mph N/A   Partly Cloudy
11:54 AM 57.9 °F 41.0 °F 53% 30.08 in 10.0 mi NNW 12.7 mph 20.7 mph N/A   Scattered Clouds
12:54 PM 61.0 °F 41.0 °F 48% 30.08 in 10.0 mi NNW 12.7 mph 20.7 mph N/A   Scattered Clouds
1:54 PM 57.9 °F 42.1 °F 56% 30.08 in 10.0 mi NNW 13.8 mph 21.9 mph N/A   Scattered Clouds
2:54 PM 57.9 °F 39.9 °F 51% 30.08 in 10.0 mi NW 15.0 mph - N/A   Scattered Clouds
3:54 PM 59.0 °F 39.0 °F 48% 30.09 in 10.0 mi NW 17.3 mph 21.9 mph N/A   Overcast
4:54 PM 55.9 °F 37.9 °F 51% 30.10 in 10.0 mi NNW 15.0 mph 23.0 mph N/A   Mostly Cloudy
5:54 PM 55.0 °F 39.0 °F 55% 30.13 in 10.0 mi NNW 6.9 mph - N/A   Mostly Cloudy
6:54 PM 54.0 °F 37.9 °F 55% 30.14 in 10.0 mi North 6.9 mph - N/A   Partly Cloudy
7:54 PM 51.1 °F 37.0 °F 59% 30.17 in 10.0 mi North 5.8 mph - N/A   Clear
8:54 PM 50.0 °F 37.0 °F 61% 30.19 in 10.0 mi North 4.6 mph - N/A   Clear
9:54 PM 50.0 °F 37.9 °F 63% 30.20 in 10.0 mi NNW 3.5 mph - N/A   Clear
10:54 PM 45.0 °F 39.0 °F 80% 30.21 in 10.0 mi Calm Calm - N/A   Clear
11:54 PM 45.0 °F 39.0 °F 80% 30.20 in 10.0 mi Calm Calm - N/A   Clear